Hourly Data Report for November 29, 2016

ABBOTSFORD A
BRITISH COLUMBIA

49°01'31.000" N
122°21'36.000" W
59.10 m
1100031
71108
YXX

Download Data

Hourly Data (November 2016)
Hourly Data Report for November 29, 2016
TIME
LST
Temp Definition
°C
Dew Point Definition
°C
Rel Hum Definition
%
Precip. Amount Definition
mm

Wind Dir Definition
10's deg

Wind Spd Definition
km/h
Visibility Definition
km
Stn Press Definition
kPa
Hmdx Definition


Wind Chill Definition


Weather Definition


00:00 4.8 4.8 100   36 4 16.1 101.30     LegendNANA
01:00 4.4 4.4 100   34 5 16.1 101.37     Mostly Cloudy
02:00 4.4 4.4 100   3 7 12.9 101.41     LegendNANA
03:00 3.4 3.4 100   34 5 0.2 101.42     Fog
04:00 4.1 4.1 100   36 5 0.8 101.43     Fog
05:00 4.6 4.6 100   2 7 0.8 101.45     Fog
06:00 4.8 4.8 100   2 10 8.1 101.47     LegendNANA
07:00 4.9 4.9 100   36 3 8.1 101.48     Fog
08:00 4.7 4.7 100   1 7 24.1 101.48     LegendNANA
09:00 5.4 5.3 99   2 9 16.1 101.49     LegendNANA
10:00 5.5 5.2 98   2 6 48.3 101.47     Mostly Cloudy
11:00 6.3 5.4 94   1 9 40.2 101.47     LegendNANA
12:00 6.5 5.5 93   3 7 32.2 101.43     Rain
13:00 6.6 5.6 93   5 8 24.1 101.34     Rain
14:00 6.6 5.4 92   3 10 32.2 101.27     LegendNANA
15:00 7.3 5.6 89   3 12 32.2 101.16     LegendNANA
16:00 6.0 5.0 93   4 9 48.3 101.04     Mostly Cloudy
17:00 5.8 4.8 93   5 4 16.1 100.95     LegendNANA
18:00 5.7 4.7 93   5 10 16.1 100.86     LegendNANA
19:00 5.5 4.8 95   7 8 16.1 100.75     Mostly Cloudy
20:00 5.2 4.6 96   6 7 16.1 100.62     LegendNANA
21:00 5.1 4.2 94   4 9 16.1 100.57     LegendNANA
22:00 4.9 3.6 91   33 8 16.1 100.48     Mostly Cloudy
23:00 5.1 3.8 91   5 12 16.1 100.47     LegendNANA

Notes on Data Quality.

Legend

  • E = Estimated
  • M = Missing
  • NA = Not Available*
  • [empty] = Indicates an unobserved value
Date modified: